星链-33841 (STARLINK-33841)

导读

STARLINK-33841是美国太空探索技术公司(SpaceX)星链(Starlink)计划中的一颗卫星,于2025年4月29日发射升空。作为星链星座的组成部分,它旨在为全球提供低延迟、高速率的宽带互联网覆盖,服务包括偏远地区网络接入、海事、航空等多场景互联,进一步扩展星链星座的全球服务能力。

Basic Information
目录编号:
63771
目录名称:
STARLINK-33841
国际标识:
2025-089W
轨道中心:
EARTH
卫星名称:
星链-33841
卫星全名:
星链-33841 (STARLINK-33841)
卫星状态:
在轨 (已飞行493 天)
发射日期:
2025-04-29 UTC
国别 :
美国 (US)
星等 :
--
Orbit Information
数据来源 国际轨道数据
星历时间: 2026-09-04T08:40:31+0800
13小时前
查看轨道信息
半长轴: 6861.176km
偏心率: 0.0001602
轨道倾角: 43.005°
近地点辐角 304.937°
升交点赤经 117.941°
平近点角 55.133°
近地点: 481.939km
远地点: 484.139km
周期: 94.267分钟
每日圈数: 15.275837
Detailed Information
固有亮度:
5
最大亮度:
2.5
卫星平台:
Starlink V1.0
覆盖范围:
全球
运营商:
太空探索技术公司
运营商所在国:
美国
制造商(研发单位):
太空探索技术公司
制造商所在国:
美国
使用方式:
暂无
Satellite Introduction
Starlink 计划是 SpaceX 推出的全球卫星互联网项目,通过发射低轨道卫星,为全球尤其是偏远地区提供高速、低延迟的互联网服务。自 2019 年起,Starlink 已部署数千颗卫星,旨在缩小全球数字鸿沟,推动互联网普及。该项目还为军事、航空等行业提供通信支持,带来广泛经济效益。
2D Orbit Map
3D Orbit Map
Orbit Altitude Analysis Chart
Orbit Inclination Analysis Chart
Orbit Comprehensive Analysis Chart
View Comprehensive Chart
Conjunction Data List
Event ID Objects TCA Miss Dist (km) Collision Risk Probability Collision Risk Index (CRI) Action
CDM_260829-093006-299906-377121
2026-08-29T
09:30:00+0000
1.845 km
极远距离
2.37021E-6 低风险 0.42